Skip Page Navigation
NASA JPL Caltech
NASA Logo - Jet Propulsion Laboratory + View the NASA Portal
+ Center for Near-Earth Object Studies
JPL Home Earth Solar System Stars & Galaxies Technology
JPL Solar System Dynamics
BODIES ORBITS EPHEMERIDES TOOLS PHYSICAL DATA DISCOVERY FAQ SITE MAP
IMPORTANT: The SSD Announcement email list is now available. Major changes are coming in the near future, including possible hostname and/or URL changes. To be notified of such changes, subscribe to this email list.

Please visit this page for more details.


JPL Small-Body Database Browser
Search: [ help ]  
160900 (2001 SZ306)
Classification: Main-belt Asteroid          SPK-ID: 2160900
Ephemeris | Orbit Diagram | Orbital Elements | Mission Design | Physical Parameters | Discovery Circumstances ]

[ hide orbit diagram ]

For accurate long-term ephemerides, please instead use our Horizons system.This orbit viewer was implemented using two-body methods, and hence should not be used for determining accurate long-term trajectories (over several years or decades) or planetary encounter circumstances.


[ revert to old Java-based viewer ]

Orbital Elements at Epoch 2458600.5 (2019-Apr-27.0) TDB
Reference: JPL 15 (heliocentric ecliptic J2000)
 Element Value Uncertainty (1-sigma)   Units 
e .2417904346934951 5.3396e-08  
a 2.639152083275607 2.0631e-08 au
q 2.001030353838154 1.4791e-07 au
i 6.276594416693225 7.4135e-06 deg
node 154.5320706837338 5.0018e-05 deg
peri 268.8929672775107 5.3308e-05 deg
M 348.9984620695123 1.7924e-05 deg
tp 2458648.357053134452
(2019-Jun-13.85705313)
7.8296e-05 TDB
period 1566.011882816737
4.29
1.8363e-05
5.028e-08
d
yr
n .2298833131154019 2.6955e-09 deg/d
Q 3.277273812713059 2.5619e-08 au
  Orbit Determination Parameters
   # obs. used (total)      237  
   data-arc span      8045 days (22.03 yr)  
   first obs. used      1997-10-29  
   last obs. used      2019-11-08  
   planetary ephem.      DE431  
   SB-pert. ephem.      SB431-N16  
   condition code      0  
   norm. resid. RMS      .67967  
   source      ORB  
   producer      Otto Matic  
   solution date      2019-Dec-04 13:53:14  

Additional Information
 Earth MOID = 1.02558 au 
 Jupiter MOID = 2.09676 au 
 T_jup = 3.345 
[ show covariance matrix ]

Ephemeris | Orbit Diagram | Orbital Elements | Mission Design | Physical Parameters | Discovery Circumstances ]

Physical Parameter Table
Parameter Symbol Value Units Sigma Reference Notes
absolute magnitude H 16.6   n/a MPO454066  

160900 (2001 SZ306)          Discovered 2001-Sep-21 by LINEAR at Socorro
Reference: 20070828/Numbers.arcLast Updated: 2007-08-30

Alternate Designations
 2001 SZ306 = 2007 BP59 
Ephemeris | Orbit Diagram | Orbital Elements | Mission Design | Physical Parameters | Discovery Circumstances ]
ABOUT SSD CREDITS/AWARDS PRIVACY/COPYRIGHT GLOSSARY LINKS
FirstGov 2019-Dec-13 21:49 UT
(server date/time)  
NASA Home Page
Site Manager:   Ryan S. Park
Webmaster  Alan B. Chamberlin